SKBQSKCG

Guest
Details From SKBQ - Ernesto Cortissoz
To SKCG - RAFAEL NUNEZ
Flight Number -
Tags generated
Created
Modified
Stats Distance 51 nm / 95 km
Max Altitude 2,600 ft / 792 m
Waypoints 3
Social Downloads 1
Likes 0
Share VATSIM

Download

Looking for another format? Having issues loading an existing format? Contact us
Advertisement - Login to hide

Notes

Basic altitude profile: - Ascent Rate: 1000ft/min - Ascent Speed: 100kts - Cruise Altitude: 6000ft - Cruise Speed: 120kts - Descent Rate: 800ft/min - Descent Speed: 120kts Options: - Use NATs: yes - Use PACOTS: yes - Use low airways: yes - Use high airways: no

Route

SKBQ BAQ SKCG

ID Type Via Altitude Latitude Longitude Leg Dist Tot Dist Heading (true) Name
O SKBQ APT - 0 ft / 0 m 10.88959˚ -74.78082˚ - 0 nm - Ernesto Cortissoz
BAQ VOR - 2,600 ft / 792 m 10.79667˚ -74.86028˚ 7 nm 7 nm 220° / 220° BARRANQUILLA VOR-DME
O SKCG APT - 0 ft / 0 m 10.44238˚ -75.51296˚ 44 nm 51 nm 241° / 241° RAFAEL NUNEZ

Altitude Profile

Advertisement - Login to hide

SKBQ

Details ICAO SKBQ (BAQ)
Name Ernesto Cortissoz
Region Colombia
Timezone America/Bogota (UTC-5.0)
Stats Elevation 98 ft / 30 m (AMSL)
Location 10.889589° -74.780820°
Runways 1
Magnetic Variation 7.667° W

METAR

SKBQ 231700Z 12005KT 9999 SCT015TCU 31/27 A2985 RMK TCU N/S

Decode

TAF

Not found

Departure Runways

ID Width Length Bearing (true) Bearing (mag) Surface Threshold Offset Overrun Length
05 148 ft / 45 m 9,863 ft / 3,006 m 40.09° 47.76° Concrete 0 ft / 0 m 105 ft / 32 m
23 148 ft / 45 m 9,863 ft / 3,006 m 220.09° 227.76° Concrete 0 ft / 0 m 0 ft / 0 m

SKCG

Details ICAO SKCG (CTG)
Name RAFAEL NUNEZ
Region Colombia
Timezone America/Bogota (UTC-5.0)
Stats Elevation 4 ft / 1 m (AMSL)
Location 10.442379° -75.512961°
Runways 1
Magnetic Variation 7.142° W

METAR

SKCG 231700Z 35009KT 9999 FEW017TCU SCT250 33/27 A2982 RMK TCU/E/SE

Decode

TAF

TAF SKCG 230500Z 230606 01008KT 9999 FEW017 SCT200 TEMPO 2310/2315 11007KT TEMPO 2315/2318 8000 DZ SCT017CB BKN090 TEMPO 2319/2323 33010KT SCT020TCU TX32/2318Z TN25/2311Z

Decode

Destination Runways

ID Width Length Bearing (true) Bearing (mag) Surface Threshold Offset Overrun Length
01 148 ft / 45 m 8,584 ft / 2,616 m 2.31° 9.45° Asphalt 0 ft / 0 m 180 ft / 55 m
19 148 ft / 45 m 8,584 ft / 2,616 m 182.31° 189.45° Asphalt 190 ft / 58 m 0 ft / 0 m

Popular Alternatives